Time,TemperatureF,DewpointF,PressureIn,WindDirection,WindDirectionDegrees,WindSpeedMPH,WindSpeedGustMPH,Humidity,HourlyPrecipIn,Conditions,Clouds,dailyrainin,SolarRadiationWatts/m^2,SoftwareType,DateUTC
2013-07-10 00:00:00,86.5,63.1,29.32,South,191,10.6,12.9,45,-99.99,,,0.00,0,rob ver 1B,2013-07-10 07:00:00,
2013-07-10 00:01:00,86.4,63.2,29.32,SSW,193,9.6,13.1,45,-99.99,,,0.00,0,rob ver 1B,2013-07-10 07:01:00,
2013-07-10 00:02:00,86.4,63.2,29.32,South,190,9.1,12.7,46,-99.99,,,0.00,0,rob ver 1B,2013-07-10 07:02:00,
2013-07-10 00:03:00,86.4,63.3,29.32,South,189,10.4,13.4,46,-99.99,,,0.00,0,rob ver 1B,2013-07-10 07:03:00,
2013-07-10 00:04:00,87.8,64.1,29.35,SSW,193,9.0,13.4,45,-99.99,,,0.00,0,rob ver 1A,2013-07-10 07:04:00,
2013-07-10 00:05:00,86.3,63.5,29.32,South,188,10.7,12.8,46,-99.99,,,0.00,0,rob ver 1B,2013-07-10 07:05:00,
2013-07-10 00:06:00,86.3,63.5,29.32,SSW,192,11.0,13.4,46,-99.99,,,0.00,0,rob ver 1B,2013-07-10 07:06:00,
2013-07-10 00:07:00,86.2,63.6,29.35,SSW,194,10.7,14.2,47,-99.99,,,0.00,0,rob ver 1B,2013-07-10 07:07:00,
2013-07-10 00:08:00,86.2,63.7,29.35,SSW,194,11.9,14.1,47,-99.99,,,0.00,0,rob ver 1B,2013-07-10 07:08:00,
2013-07-10 00:09:00,87.8,64.3,29.35,South,188,10.0,12.4,45,-99.99,,,0.00,0,rob ver 1A,2013-07-10 07:09:00,
2013-07-10 00:10:00,86.1,63.8,29.32,SSW,196,10.8,13.6,47,-99.99,,,0.00,0,rob ver 1B,2013-07-10 07:10:00,
2013-07-10 00:11:00,86.1,63.9,29.32,SSW,197,9.9,11.9,47,-99.99,,,0.00,0,rob ver 1B,2013-07-10 07:11:00,
2013-07-10 00:12:00,86.0,64.0,29.32,SSW,196,9.8,11.9,47,-99.99,,,0.00,0,rob ver 1B,2013-07-10 07:12:00,
2013-07-10 00:13:00,86.0,64.0,29.32,SSW,201,11.0,12.8,48,-99.99,,,0.00,0,rob ver 1B,2013-07-10 07:13:00,
2013-07-10 00:14:00,87.4,64.9,29.35,SSW,200,9.6,11.2,47,-99.99,,,0.00,0,rob ver 1A,2013-07-10 07:14:00,
2013-07-10 00:15:00,85.9,64.1,29.35,SSW,203,9.0,11.1,48,-99.99,,,0.00,0,rob ver 1B,2013-07-10 07:15:00,
2013-07-10 00:16:00,85.8,64.0,29.32,SSW,199,9.9,13.5,48,-99.99,,,0.00,0,rob ver 1B,2013-07-10 07:16:00,
2013-07-10 00:17:00,85.8,64.1,29.32,SSW,202,11.8,13.1,48,-99.99,,,0.00,0,rob ver 1B,2013-07-10 07:17:00,
2013-07-10 00:18:00,85.8,64.1,29.32,SSW,205,11.9,14.8,48,-99.99,,,0.00,0,rob ver 1B,2013-07-10 07:18:00,
2013-07-10 00:19:00,87.2,65.3,29.35,SSW,198,10.0,13.0,48,-99.99,,,0.00,0,rob ver 1A,2013-07-10 07:19:00,
2013-07-10 00:20:00,85.7,64.0,29.32,SSW,202,10.3,12.8,48,-99.99,,,0.00,0,rob ver 1B,2013-07-10 07:20:00,
2013-07-10 00:21:00,85.7,64.1,29.32,SSW,203,9.6,11.9,48,-99.99,,,0.00,0,rob ver 1B,2013-07-10 07:21:00,
2013-07-10 00:22:00,85.6,64.0,29.32,SSW,203,8.8,11.7,48,-99.99,,,0.00,0,rob ver 1B,2013-07-10 07:22:00,
2013-07-10 00:23:00,85.6,64.0,29.32,SSW,204,11.7,14.4,48,-99.99,,,0.00,0,rob ver 1B,2013-07-10 07:23:00,
2013-07-10 00:24:00,87.0,65.8,29.35,SSW,200,10.0,12.6,49,-99.99,,,0.00,0,rob ver 1A,2013-07-10 07:24:00,
2013-07-10 00:25:00,85.5,64.0,29.32,SSW,207,11.0,14.3,48,-99.99,,,0.00,0,rob ver 1B,2013-07-10 07:25:00,
2013-07-10 00:26:00,85.4,64.1,29.32,SSW,204,11.3,13.1,49,-99.99,,,0.00,0,rob ver 1B,2013-07-10 07:26:00,
2013-07-10 00:27:00,85.3,64.1,29.32,SSW,205,10.3,12.2,49,-99.99,,,0.00,0,rob ver 1B,2013-07-10 07:27:00,
2013-07-10 00:28:00,85.3,64.0,29.32,SSW,205,9.7,12.3,48,-99.99,,,0.00,0,rob ver 1B,2013-07-10 07:28:00,
2013-07-10 00:29:00,87.0,65.9,29.35,SSW,194,7.8,9.4,49,-99.99,,,0.00,0,rob ver 1A,2013-07-10 07:29:00,
2013-07-10 00:30:00,85.2,64.0,29.32,SSW,207,11.9,13.2,49,-99.99,,,0.00,0,rob ver 1B,2013-07-10 07:30:00,
2013-07-10 00:31:00,85.1,64.0,29.32,SSW,205,11.5,13.3,49,-99.99,,,0.00,0,rob ver 1B,2013-07-10 07:31:00,
2013-07-10 00:32:00,85.1,63.9,29.32,SSW,210,11.1,13.3,49,-99.99,,,0.00,0,rob ver 1B,2013-07-10 07:32:00,
2013-07-10 00:33:00,85.0,63.9,29.32,SSW,208,10.5,14.3,49,-99.99,,,0.00,0,rob ver 1B,2013-07-10 07:33:00,
2013-07-10 00:34:00,86.9,66.2,29.35,SSW,198,9.0,10.5,50,-99.99,,,0.00,0,rob ver 1A,2013-07-10 07:34:00,
2013-07-10 00:35:00,85.0,63.9,29.32,SSW,208,12.3,14.8,49,-99.99,,,0.00,0,rob ver 1B,2013-07-10 07:35:00,
2013-07-10 00:36:00,85.0,63.8,29.32,SSW,209,9.3,12.4,49,-99.99,,,0.00,0,rob ver 1B,2013-07-10 07:36:00,
2013-07-10 00:37:00,84.9,63.7,29.32,SSW,204,10.1,13.4,49,-99.99,,,0.00,0,rob ver 1B,2013-07-10 07:37:00,
2013-07-10 00:38:00,84.9,63.7,29.32,SSW,206,10.0,12.6,49,-99.99,,,0.00,0,rob ver 1B,2013-07-10 07:38:00,
2013-07-10 00:39:00,86.8,66.5,29.35,SSW,196,7.6,8.9,50,-99.99,,,0.00,0,rob ver 1A,2013-07-10 07:39:00,
2013-07-10 00:40:00,84.9,63.5,29.32,SSW,199,9.5,11.9,48,-99.99,,,0.00,0,rob ver 1B,2013-07-10 07:40:00,
2013-07-10 00:41:00,84.9,63.5,29.32,SSW,201,12.4,14.1,48,-99.99,,,0.00,0,rob ver 1B,2013-07-10 07:41:00,
2013-07-10 00:42:00,84.9,63.4,29.32,SSW,203,11.1,13.4,48,-99.99,,,0.00,0,rob ver 1B,2013-07-10 07:42:00,
2013-07-10 00:43:00,84.9,63.5,29.32,SSW,201,9.5,12.1,48,-99.99,,,0.00,0,rob ver 1B,2013-07-10 07:43:00,
2013-07-10 00:44:00,86.9,66.5,29.35,SSW,200,6.2,7.3,51,-99.99,,,0.00,0,rob ver 1A,2013-07-10 07:44:00,
2013-07-10 00:45:00,84.9,63.4,29.32,SSW,199,10.0,11.8,48,-99.99,,,0.00,0,rob ver 1B,2013-07-10 07:45:00,
2013-07-10 00:46:00,84.9,63.4,29.32,SSW,204,9.0,10.6,48,-99.99,,,0.00,0,rob ver 1B,2013-07-10 07:46:00,
2013-07-10 00:47:00,84.9,63.4,29.35,SSW,195,8.9,10.3,48,-99.99,,,0.00,0,rob ver 1B,2013-07-10 07:47:00,
2013-07-10 00:48:00,84.9,63.3,29.35,SSW,198,10.4,12.4,48,-99.99,,,0.00,0,rob ver 1B,2013-07-10 07:48:00,
2013-07-10 00:49:00,86.5,67.6,29.38,SW,215,4.9,7.6,54,-99.99,,,0.00,0,rob ver 1A,2013-07-10 07:49:00,
2013-07-10 00:50:00,84.9,63.3,29.32,SSW,196,10.6,13.0,48,-99.99,,,0.00,0,rob ver 1B,2013-07-10 07:50:00,
2013-07-10 00:51:00,84.8,63.3,29.32,SSW,198,10.4,12.6,48,-99.99,,,0.00,0,rob ver 1B,2013-07-10 07:51:00,
2013-07-10 00:52:00,84.8,63.3,29.32,SSW,196,9.7,12.7,48,-99.99,,,0.00,0,rob ver 1B,2013-07-10 07:52:00,
2013-07-10 00:53:00,84.8,63.3,29.32,SSW,199,9.6,11.9,48,-99.99,,,0.00,0,rob ver 1B,2013-07-10 07:53:00,
2013-07-10 00:54:00,85.9,68.2,29.38,SSW,207,5.3,6.3,55,-99.99,,,0.00,0,rob ver 1A,2013-07-10 07:54:00,
2013-07-10 00:55:00,84.8,63.2,29.32,SSW,194,10.4,12.4,48,-99.99,,,0.00,0,rob ver 1B,2013-07-10 07:55:00,
2013-07-10 00:56:00,84.8,63.2,29.35,SSW,193,10.6,12.9,48,-99.99,,,0.00,0,rob ver 1B,2013-07-10 07:56:00,
2013-07-10 00:57:00,84.8,63.2,29.35,SSW,195,10.7,13.2,48,-99.99,,,0.00,0,rob ver 1B,2013-07-10 07:57:00,
2013-07-10 00:58:00,84.8,63.2,29.32,South,190,9.7,12.6,48,-99.99,,,0.00,0,rob ver 1B,2013-07-10 07:58:00,
2013-07-10 00:59:00,85.8,68.4,29.38,SSW,205,5.8,6.7,56,-99.99,,,0.00,0,rob ver 1A,2013-07-10 07:59:00,
2013-07-10 01:00:00,84.8,63.1,29.32,SSW,194,10.1,12.2,48,-99.99,,,0.00,0,rob ver 1B,2013-07-10 08:00:00,
2013-07-10 01:01:00,84.8,63.1,29.32,SSW,194,8.9,11.3,48,-99.99,,,0.00,0,rob ver 1B,2013-07-10 08:01:00,
2013-07-10 01:02:00,84.8,63.1,29.32,South,189,7.7,10.7,48,-99.99,,,0.00,0,rob ver 1B,2013-07-10 08:02:00,
2013-07-10 01:03:00,84.8,63.1,29.35,South,189,7.5,9.3,48,-99.99,,,0.00,0,rob ver 1B,2013-07-10 08:03:00,
2013-07-10 01:04:00,85.7,69.0,29.38,South,185,3.9,5.4,57,-99.99,,,0.00,0,rob ver 1A,2013-07-10 08:04:00,
2013-07-10 01:05:00,84.9,63.0,29.35,SSW,193,8.2,11.1,47,-99.99,,,0.00,0,rob ver 1B,2013-07-10 08:05:00,
2013-07-10 01:06:00,84.9,62.9,29.32,SSW,192,10.9,15.7,47,-99.99,,,0.00,0,rob ver 1B,2013-07-10 08:06:00,
2013-07-10 01:07:00,85.0,63.0,29.32,South,191,12.4,14.4,47,-99.99,,,0.00,0,rob ver 1B,2013-07-10 08:07:00,
2013-07-10 01:08:00,85.0,62.9,29.32,SSW,200,8.7,11.0,47,-99.99,,,0.00,0,rob ver 1B,2013-07-10 08:08:00,
2013-07-10 01:09:00,85.8,68.4,29.38,SE,129,3.8,4.7,55,-99.99,,,0.00,0,rob ver 1A,2013-07-10 08:09:00,
2013-07-10 01:10:00,84.9,62.9,29.32,South,186,7.2,9.6,47,-99.99,,,0.00,0,rob ver 1B,2013-07-10 08:10:00,
2013-07-10 01:11:00,84.9,63.0,29.32,South,191,7.4,9.4,47,-99.99,,,0.00,0,rob ver 1B,2013-07-10 08:11:00,
2013-07-10 01:12:00,84.9,63.0,29.32,South,187,7.5,10.0,47,-99.99,,,0.00,0,rob ver 1B,2013-07-10 08:12:00,
2013-07-10 01:13:00,84.9,62.9,29.32,South,187,8.6,11.5,47,-99.99,,,0.00,0,rob ver 1B,2013-07-10 08:13:00,
2013-07-10 01:14:00,86.2,67.9,29.38,SSE,163,5.4,6.7,54,-99.99,,,0.00,0,rob ver 1A,2013-07-10 08:14:00,
2013-07-10 01:15:00,85.0,63.0,29.32,SSW,197,7.0,8.5,47,-99.99,,,0.00,0,rob ver 1B,2013-07-10 08:15:00,
2013-07-10 01:16:00,85.0,62.9,29.32,SSW,196,7.4,10.9,47,-99.99,,,0.00,0,rob ver 1B,2013-07-10 08:16:00,
2013-07-10 01:17:00,85.0,62.9,29.32,South,188,9.4,11.5,47,-99.99,,,0.00,0,rob ver 1B,2013-07-10 08:17:00,
2013-07-10 01:18:00,85.0,62.9,29.32,SSW,199,9.6,11.8,47,-99.99,,,0.00,0,rob ver 1B,2013-07-10 08:18:00,
2013-07-10 01:19:00,86.6,66.5,29.38,SSE,158,7.2,9.7,49,-99.99,,,0.00,0,rob ver 1A,2013-07-10 08:19:00,
2013-07-10 01:20:00,85.0,62.9,29.32,SSW,205,5.9,8.4,47,-99.99,,,0.00,0,rob ver 1B,2013-07-10 08:20:00,
2013-07-10 01:21:00,85.0,62.8,29.32,SSW,198,7.4,10.0,47,-99.99,,,0.00,0,rob ver 1B,2013-07-10 08:21:00,
2013-07-10 01:22:00,85.0,62.7,29.32,SSW,198,9.5,12.7,47,-99.99,,,0.00,0,rob ver 1B,2013-07-10 08:22:00,
2013-07-10 01:23:00,85.1,62.8,29.32,SSW,198,9.7,12.9,47,-99.99,,,0.00,0,rob ver 1B,2013-07-10 08:23:00,
2013-07-10 01:24:00,87.1,66.5,29.38,SSE,160,4.9,6.3,51,-99.99,,,0.00,0,rob ver 1A,2013-07-10 08:24:00,
2013-07-10 01:25:00,85.1,62.8,29.32,SSW,205,7.4,8.8,47,-99.99,,,0.00,0,rob ver 1B,2013-07-10 08:25:00,
2013-07-10 01:26:00,85.0,62.9,29.32,SSW,203,8.3,9.1,47,-99.99,,,0.00,0,rob ver 1B,2013-07-10 08:26:00,
2013-07-10 01:27:00,85.0,62.9,29.32,SSW,202,8.0,9.3,47,-99.99,,,0.00,0,rob ver 1B,2013-07-10 08:27:00,
2013-07-10 01:28:00,85.0,62.9,29.32,SSW,201,7.9,8.9,47,-99.99,,,0.00,0,rob ver 1B,2013-07-10 08:28:00,
2013-07-10 01:29:00,87.6,66.1,29.38,ENE,67,5.0,6.7,48,-99.99,,,0.00,0,rob ver 1A,2013-07-10 08:29:00,
2013-07-10 01:30:00,85.0,63.0,29.32,SSW,196,7.6,9.4,47,-99.99,,,0.00,0,rob ver 1B,2013-07-10 08:30:00,
2013-07-10 01:31:00,84.9,63.0,29.32,SSW,199,8.0,10.1,47,-99.99,,,0.00,0,rob ver 1B,2013-07-10 08:31:00,
2013-07-10 01:32:00,84.9,63.1,29.32,SSW,197,7.9,9.0,48,-99.99,,,0.00,0,rob ver 1B,2013-07-10 08:32:00,
2013-07-10 01:33:00,84.9,63.1,29.32,SSW,196,7.2,8.9,48,-99.99,,,0.00,0,rob ver 1B,2013-07-10 08:33:00,
2013-07-10 01:34:00,87.7,66.4,29.38,ENE,70,4.6,7.3,49,-99.99,,,0.00,0,rob ver 1A,2013-07-10 08:34:00,
2013-07-10 01:35:00,84.8,63.1,29.32,SSW,196,7.8,9.3,48,-99.99,,,0.00,0,rob ver 1B,2013-07-10 08:35:00,
2013-07-10 01:36:00,84.8,63.2,29.32,SSW,194,8.1,10.8,48,-99.99,,,0.00,0,rob ver 1B,2013-07-10 08:36:00,
2013-07-10 01:37:00,84.8,63.2,29.32,SSW,196,8.8,10.2,48,-99.99,,,0.00,0,rob ver 1B,2013-07-10 08:37:00,
2013-07-10 01:38:00,84.8,63.1,29.32,South,191,6.6,8.8,48,-99.99,,,0.00,0,rob ver 1B,2013-07-10 08:38:00,
2013-07-10 01:39:00,87.6,66.7,29.41,ENE,65,7.4,9.9,49,-99.99,,,0.00,0,rob ver 1A,2013-07-10 08:39:00,
2013-07-10 01:40:00,84.8,63.2,29.32,SSW,193,8.2,9.5,48,-99.99,,,0.00,0,rob ver 1B,2013-07-10 08:40:00,
2013-07-10 01:41:00,84.8,63.2,29.32,SSW,193,7.5,8.9,48,-99.99,,,0.00,0,rob ver 1B,2013-07-10 08:41:00,
2013-07-10 01:42:00,84.8,63.3,29.32,SSW,197,8.4,10.2,48,-99.99,,,0.00,0,rob ver 1B,2013-07-10 08:42:00,
2013-07-10 01:43:00,84.7,63.5,29.32,SSW,195,8.1,10.8,49,-99.99,,,0.00,0,rob ver 1B,2013-07-10 08:43:00,
2013-07-10 01:44:00,87.5,66.8,29.41,ENE,73,11.6,14.9,50,-99.99,,,0.00,0,rob ver 1A,2013-07-10 08:44:00,
2013-07-10 01:45:00,84.6,63.6,29.32,SSW,194,7.5,8.9,49,-99.99,,,0.00,0,rob ver 1B,2013-07-10 08:45:00,
2013-07-10 01:46:00,84.6,63.7,29.32,SSW,193,7.0,8.3,49,-99.99,,,0.00,0,rob ver 1B,2013-07-10 08:46:00,
2013-07-10 01:47:00,84.6,63.7,29.32,SSW,192,6.3,7.4,49,-99.99,,,0.00,0,rob ver 1B,2013-07-10 08:47:00,
2013-07-10 01:48:00,84.5,63.8,29.32,SSW,195,7.3,8.7,49,-99.99,,,0.00,0,rob ver 1B,2013-07-10 08:48:00,
2013-07-10 01:49:00,87.5,66.4,29.41,ENE,75,10.1,14.3,49,-99.99,,,0.00,0,rob ver 1A,2013-07-10 08:49:00,
2013-07-10 01:50:00,84.5,63.8,29.32,SSW,195,7.1,8.1,50,-99.99,,,0.00,0,rob ver 1B,2013-07-10 08:50:00,
2013-07-10 01:51:00,84.4,63.9,29.32,South,191,7.3,8.3,50,-99.99,,,0.00,0,rob ver 1B,2013-07-10 08:51:00,
2013-07-10 01:52:00,84.4,63.8,29.32,South,189,6.2,8.8,50,-99.99,,,0.00,0,rob ver 1B,2013-07-10 08:52:00,
2013-07-10 01:53:00,84.4,63.9,29.32,South,190,5.9,8.7,50,-99.99,,,0.00,0,rob ver 1B,2013-07-10 08:53:00,
2013-07-10 01:54:00,88.2,65.1,29.41,East,90,13.8,16.9,46,-99.99,,,0.00,0,rob ver 1A,2013-07-10 08:54:00,
2013-07-10 01:55:00,84.4,63.9,29.32,South,189,5.1,7.1,50,-99.99,,,0.00,0,rob ver 1B,2013-07-10 08:55:00,
2013-07-10 01:56:00,84.3,64.0,29.32,South,187,5.1,6.7,50,-99.99,,,0.00,0,rob ver 1B,2013-07-10 08:56:00,
2013-07-10 01:57:00,84.3,64.0,29.32,South,188,5.9,7.2,50,-99.99,,,0.00,0,rob ver 1B,2013-07-10 08:57:00,
2013-07-10 01:58:00,84.3,64.0,29.32,South,190,6.0,7.1,50,-99.99,,,0.00,0,rob ver 1B,2013-07-10 08:58:00,
2013-07-10 01:59:00,88.0,64.8,29.41,East,92,9.9,13.2,46,-99.99,,,0.00,0,rob ver 1A,2013-07-10 08:59:00,
2013-07-10 02:00:00,84.2,64.1,29.32,SSW,204,6.1,6.9,50,-99.99,,,0.00,0,rob ver 1B,2013-07-10 09:00:00,
2013-07-10 02:01:00,84.2,64.1,29.32,SSW,203,5.5,6.2,50,-99.99,,,0.00,0,rob ver 1B,2013-07-10 09:01:00,
2013-07-10 02:02:00,84.2,64.1,29.32,SSW,203,5.3,6.2,51,-99.99,,,0.00,0,rob ver 1B,2013-07-10 09:02:00,
2013-07-10 02:03:00,84.2,64.1,29.32,SW,215,5.3,6.1,51,-99.99,,,0.00,0,rob ver 1B,2013-07-10 09:03:00,
2013-07-10 02:04:00,87.7,65.2,29.41,East,90,9.4,12.6,47,-99.99,,,0.00,0,rob ver 1A,2013-07-10 09:04:00,
2013-07-10 02:05:00,84.2,64.1,29.32,SSW,210,4.3,5.1,50,-99.99,,,0.00,0,rob ver 1B,2013-07-10 09:05:00,
2013-07-10 02:06:00,84.2,64.1,29.32,SSW,204,5.0,7.0,51,-99.99,,,0.00,0,rob ver 1B,2013-07-10 09:06:00,
2013-07-10 02:07:00,84.1,64.2,29.32,SSW,200,5.8,7.0,51,-99.99,,,0.00,0,rob ver 1B,2013-07-10 09:07:00,
2013-07-10 02:08:00,84.1,64.2,29.32,SSW,202,5.7,6.8,51,-99.99,,,0.00,0,rob ver 1B,2013-07-10 09:08:00,
2013-07-10 02:09:00,87.5,65.2,29.41,East,91,11.2,14.4,47,-99.99,,,0.00,0,rob ver 1A,2013-07-10 09:09:00,
2013-07-10 02:10:00,84.1,64.1,29.32,SSW,196,6.3,7.2,51,-99.99,,,0.00,0,rob ver 1B,2013-07-10 09:10:00,
2013-07-10 02:11:00,84.0,64.1,29.32,SSW,199,6.6,7.9,51,-99.99,,,0.00,0,rob ver 1B,2013-07-10 09:11:00,
2013-07-10 02:12:00,84.0,64.2,29.32,SSW,198,6.6,7.9,51,-99.99,,,0.00,0,rob ver 1B,2013-07-10 09:12:00,
2013-07-10 02:13:00,84.0,64.2,29.32,SSW,194,6.7,8.0,51,-99.99,,,0.00,0,rob ver 1B,2013-07-10 09:13:00,
2013-07-10 02:14:00,87.5,65.3,29.41,East,89,11.3,14.5,47,-99.99,,,0.00,0,rob ver 1A,2013-07-10 09:14:00,
2013-07-10 02:15:00,83.9,64.1,29.32,SSW,195,6.3,7.8,51,-99.99,,,0.00,0,rob ver 1B,2013-07-10 09:15:00,
2013-07-10 02:16:00,83.9,64.1,29.32,SSW,197,6.3,7.9,51,-99.99,,,0.00,0,rob ver 1B,2013-07-10 09:16:00,
2013-07-10 02:17:00,83.9,64.1,29.32,SSW,201,6.3,7.2,51,-99.99,,,0.00,0,rob ver 1B,2013-07-10 09:17:00,
2013-07-10 02:18:00,83.9,64.1,29.32,SSW,200,5.7,6.6,51,-99.99,,,0.00,0,rob ver 1B,2013-07-10 09:18:00,
2013-07-10 02:19:00,87.5,65.5,29.41,ESE,103,11.4,13.4,48,-99.99,,,0.00,0,rob ver 1A,2013-07-10 09:19:00,
2013-07-10 02:20:00,83.9,64.1,29.32,SSW,199,5.7,6.9,51,-99.99,,,0.00,0,rob ver 1B,2013-07-10 09:20:00,
2013-07-10 02:21:00,83.9,64.2,29.32,SSW,199,6.0,7.0,51,-99.99,,,0.00,0,rob ver 1B,2013-07-10 09:21:00,
2013-07-10 02:22:00,83.9,64.3,29.32,SSW,199,5.9,7.4,51,-99.99,,,0.00,0,rob ver 1B,2013-07-10 09:22:00,
2013-07-10 02:23:00,83.8,64.3,29.32,SSW,194,5.9,7.6,52,-99.99,,,0.00,0,rob ver 1B,2013-07-10 09:23:00,
2013-07-10 02:24:00,83.8,64.4,29.32,SSW,195,5.8,6.8,52,-99.99,,,0.00,0,rob ver 1B,2013-07-10 09:24:00,
2013-07-10 02:25:00,87.4,65.8,29.41,East,86,8.9,11.9,49,-99.99,,,0.00,0,rob ver 1A,2013-07-10 09:25:00,
2013-07-10 02:26:00,83.8,64.5,29.32,SSW,196,7.4,9.0,52,-99.99,,,0.00,0,rob ver 1B,2013-07-10 09:26:00,
2013-07-10 02:27:00,83.7,64.6,29.32,SSW,196,6.5,7.8,52,-99.99,,,0.00,0,rob ver 1B,2013-07-10 09:27:00,
2013-07-10 02:28:00,83.7,64.7,29.32,SSW,198,8.0,9.4,53,-99.99,,,0.00,0,rob ver 1B,2013-07-10 09:28:00,
2013-07-10 02:29:00,83.6,64.8,29.32,SSW,197,6.7,8.3,53,-99.99,,,0.00,0,rob ver 1B,2013-07-10 09:29:00,
2013-07-10 02:30:00,87.1,66.2,29.41,East,94,9.1,11.1,49,-99.99,,,0.00,0,rob ver 1A,2013-07-10 09:30:00,
2013-07-10 02:31:00,83.4,65.0,29.32,SSW,197,5.2,6.5,53,-99.99,,,0.00,0,rob ver 1B,2013-07-10 09:31:00,
2013-07-10 02:32:00,83.4,64.9,29.32,South,185,3.9,4.9,53,-99.99,,,0.00,0,rob ver 1B,2013-07-10 09:32:00,
2013-07-10 02:33:00,83.4,64.9,29.32,South,188,4.8,6.7,53,-99.99,,,0.00,0,rob ver 1B,2013-07-10 09:33:00,
2013-07-10 02:34:00,83.4,65.0,29.32,SSW,198,5.7,6.8,53,-99.99,,,0.00,0,rob ver 1B,2013-07-10 09:34:00,
2013-07-10 02:35:00,87.0,66.7,29.41,East,95,9.3,11.5,51,-99.99,,,0.00,0,rob ver 1A,2013-07-10 09:35:00,
2013-07-10 02:36:00,83.4,65.0,29.32,SSW,194,7.4,8.7,53,-99.99,,,0.00,0,rob ver 1B,2013-07-10 09:36:00,
2013-07-10 02:37:00,83.4,65.0,29.32,SSW,193,7.7,9.1,53,-99.99,,,0.00,0,rob ver 1B,2013-07-10 09:37:00,
2013-07-10 02:38:00,83.4,64.9,29.32,SSW,194,6.8,8.0,53,-99.99,,,0.00,0,rob ver 1B,2013-07-10 09:38:00,
2013-07-10 02:39:00,83.4,64.8,29.32,South,187,5.4,6.7,53,-99.99,,,0.00,0,rob ver 1B,2013-07-10 09:39:00,
2013-07-10 02:40:00,86.8,66.9,29.41,East,100,9.6,12.1,51,-99.99,,,0.00,0,rob ver 1A,2013-07-10 09:40:00,
2013-07-10 02:41:00,83.5,64.7,29.32,SSW,202,5.9,6.9,53,-99.99,,,0.00,0,rob ver 1B,2013-07-10 09:41:00,
2013-07-10 02:42:00,83.5,64.7,29.32,SSW,206,4.4,5.9,53,-99.99,,,0.00,0,rob ver 1B,2013-07-10 09:42:00,
2013-07-10 02:43:00,83.5,64.7,29.32,SW,216,3.5,4.1,52,-99.99,,,0.00,0,rob ver 1B,2013-07-10 09:43:00,
2013-07-10 02:44:00,83.6,64.6,29.32,SW,218,3.4,3.9,52,-99.99,,,0.00,0,rob ver 1B,2013-07-10 09:44:00,
2013-07-10 02:45:00,86.9,66.7,29.41,ESE,102,10.9,12.8,51,-99.99,,,0.00,0,rob ver 1A,2013-07-10 09:45:00,
2013-07-10 02:46:00,83.7,64.6,29.32,SW,234,2.8,3.8,52,-99.99,,,0.00,0,rob ver 1B,2013-07-10 09:46:00,
2013-07-10 02:47:00,83.7,64.6,29.32,WSW,245,2.7,3.4,52,-99.99,,,0.00,0,rob ver 1B,2013-07-10 09:47:00,
2013-07-10 02:48:00,83.8,64.6,29.32,WNW,287,2.7,3.5,52,-99.99,,,0.00,0,rob ver 1B,2013-07-10 09:48:00,
2013-07-10 02:49:00,83.8,64.7,29.32,NW,309,4.8,6.8,52,-99.99,,,0.00,0,rob ver 1B,2013-07-10 09:49:00,
2013-07-10 02:50:00,86.9,66.8,29.41,East,100,10.1,12.3,51,-99.99,,,0.00,0,rob ver 1A,2013-07-10 09:50:00,
2013-07-10 02:51:00,83.7,64.7,29.32,WNW,295,3.9,4.7,52,-99.99,,,0.00,0,rob ver 1B,2013-07-10 09:51:00,
2013-07-10 02:52:00,83.7,64.7,29.32,NW,311,2.8,3.9,53,-99.99,,,0.00,0,rob ver 1B,2013-07-10 09:52:00,
2013-07-10 02:53:00,83.6,64.7,29.32,WNW,284,1.7,3.0,53,-99.99,,,0.00,0,rob ver 1B,2013-07-10 09:53:00,
2013-07-10 02:54:00,83.6,64.7,29.32,West,269,2.7,3.2,53,-99.99,,,0.00,0,rob ver 1B,2013-07-10 09:54:00,
2013-07-10 02:55:00,86.8,66.8,29.41,ESE,107,8.3,10.7,51,-99.99,,,0.00,0,rob ver 1A,2013-07-10 09:55:00,
2013-07-10 02:56:00,83.5,64.7,29.32,WSW,256,4.2,5.6,53,-99.99,,,0.00,0,rob ver 1B,2013-07-10 09:56:00,
2013-07-10 02:57:00,83.5,64.6,29.32,SW,233,2.6,3.8,52,-99.99,,,0.00,0,rob ver 1B,2013-07-10 09:57:00,
2013-07-10 02:58:00,83.5,64.6,29.32,WSW,250,4.0,5.1,52,-99.99,,,0.00,0,rob ver 1B,2013-07-10 09:58:00,
2013-07-10 02:59:00,83.5,64.6,29.32,SW,233,4.0,4.6,53,-99.99,,,0.00,0,rob ver 1B,2013-07-10 09:59:00,
2013-07-10 03:00:00,86.8,66.7,29.41,SE,129,8.8,11.9,51,-99.99,,,0.00,0,rob ver 1A,2013-07-10 10:00:00,
2013-07-10 03:01:00,83.5,64.6,29.32,WSW,244,3.6,4.5,53,-99.99,,,0.00,0,rob ver 1B,2013-07-10 10:01:00,
2013-07-10 03:02:00,83.6,64.7,29.32,WSW,247,3.5,4.7,52,-99.99,,,0.00,0,rob ver 1B,2013-07-10 10:02:00,
2013-07-10 03:03:00,83.6,64.7,29.32,WSW,239,4.5,5.0,53,-99.99,,,0.00,0,rob ver 1B,2013-07-10 10:03:00,
2013-07-10 03:04:00,83.5,64.7,29.32,WSW,240,3.9,4.7,53,-99.99,,,0.00,0,rob ver 1B,2013-07-10 10:04:00,
2013-07-10 03:05:00,86.8,66.9,29.41,SE,142,9.1,11.9,51,-99.99,,,0.00,0,rob ver 1A,2013-07-10 10:05:00,
2013-07-10 03:06:00,83.4,64.7,29.32,West,265,2.8,4.3,53,-99.99,,,0.00,0,rob ver 1B,2013-07-10 10:06:00,
2013-07-10 03:07:00,83.4,64.7,29.32,WSW,254,3.1,4.1,53,-99.99,,,0.00,0,rob ver 1B,2013-07-10 10:07:00,
2013-07-10 03:08:00,83.4,64.7,29.32,WSW,245,3.3,4.3,53,-99.99,,,0.00,0,rob ver 1B,2013-07-10 10:08:00,
2013-07-10 03:09:00,83.5,64.5,29.32,WSW,237,4.0,5.2,52,-99.99,,,0.00,0,rob ver 1B,2013-07-10 10:09:00,
2013-07-10 03:10:00,86.7,66.8,29.38,SSE,156,8.5,10.0,51,-99.99,,,0.00,0,rob ver 1A,2013-07-10 10:10:00,
2013-07-10 03:11:00,83.6,64.5,29.32,SW,228,3.4,3.8,52,-99.99,,,0.00,0,rob ver 1B,2013-07-10 10:11:00,
2013-07-10 03:12:00,83.6,64.6,29.32,SW,218,2.6,3.6,52,-99.99,,,0.00,0,rob ver 1B,2013-07-10 10:12:00,
2013-07-10 03:13:00,83.6,64.6,29.32,SW,235,1.9,2.3,52,-99.99,,,0.00,0,rob ver 1B,2013-07-10 10:13:00,
2013-07-10 03:14:00,83.6,64.5,29.32,SW,236,1.6,2.0,52,-99.99,,,0.00,0,rob ver 1B,2013-07-10 10:14:00,
2013-07-10 03:15:00,86.6,66.3,29.38,SSE,159,14.5,19.1,51,-99.99,,,0.00,0,rob ver 1A,2013-07-10 10:15:00,
2013-07-10 03:16:00,83.7,64.4,29.32,SW,216,2.4,2.8,52,-99.99,,,0.00,0,rob ver 1B,2013-07-10 10:16:00,
2013-07-10 03:17:00,83.7,64.5,29.32,SW,222,2.5,2.8,52,-99.99,,,0.00,0,rob ver 1B,2013-07-10 10:17:00,
2013-07-10 03:18:00,83.7,64.4,29.32,SW,226,2.9,3.4,52,-99.99,,,0.00,0,rob ver 1B,2013-07-10 10:18:00,
2013-07-10 03:19:00,83.7,64.4,29.32,SW,229,3.2,3.5,52,-99.99,,,0.00,0,rob ver 1B,2013-07-10 10:19:00,
2013-07-10 03:20:00,86.4,66.7,29.38,SE,146,12.0,14.3,52,-99.99,,,0.00,0,rob ver 1A,2013-07-10 10:20:00,
2013-07-10 03:21:00,83.8,64.4,29.32,SW,230,3.6,3.9,52,-99.99,,,0.00,0,rob ver 1B,2013-07-10 10:21:00,
2013-07-10 03:22:00,83.8,64.4,29.32,WSW,237,3.1,3.9,52,-99.99,,,0.00,0,rob ver 1B,2013-07-10 10:22:00,
2013-07-10 03:23:00,83.8,64.3,29.32,SW,232,3.2,4.7,51,-99.99,,,0.00,0,rob ver 1B,2013-07-10 10:23:00,
2013-07-10 03:24:00,83.8,64.3,29.32,South,191,3.5,4.7,51,-99.99,,,0.00,0,rob ver 1B,2013-07-10 10:24:00,
2013-07-10 03:25:00,86.2,67.1,29.38,SE,141,9.8,12.3,53,-99.99,,,0.00,0,rob ver 1A,2013-07-10 10:25:00,
2013-07-10 03:26:00,83.8,64.3,29.32,WSW,248,1.8,3.0,51,-99.99,,,0.00,0,rob ver 1B,2013-07-10 10:26:00,
2013-07-10 03:27:00,83.8,64.3,29.32,SW,220,3.1,4.0,51,-99.99,,,0.00,0,rob ver 1B,2013-07-10 10:27:00,
2013-07-10 03:28:00,83.8,64.3,29.32,SSW,212,4.0,4.8,52,-99.99,,,0.00,0,rob ver 1B,2013-07-10 10:28:00,
2013-07-10 03:29:00,83.7,64.3,29.32,SSW,212,3.9,4.4,51,-99.99,,,0.00,0,rob ver 1B,2013-07-10 10:29:00,
2013-07-10 03:30:00,86.1,67.6,29.38,SE,143,9.6,12.2,54,-99.99,,,0.00,0,rob ver 1A,2013-07-10 10:30:00,
2013-07-10 03:31:00,83.6,64.3,29.32,SW,223,3.4,4.8,52,-99.99,,,0.00,0,rob ver 1B,2013-07-10 10:31:00,
2013-07-10 03:32:00,83.6,64.3,29.32,SW,218,4.0,4.7,52,-99.99,,,0.00,0,rob ver 1B,2013-07-10 10:32:00,
2013-07-10 03:33:00,83.6,64.3,29.32,SSW,201,4.4,5.7,52,-99.99,,,0.00,0,rob ver 1B,2013-07-10 10:33:00,
2013-07-10 03:34:00,83.5,64.3,29.32,SSW,196,3.8,4.5,52,-99.99,,,0.00,0,rob ver 1B,2013-07-10 10:34:00,
2013-07-10 03:35:00,85.8,68.1,29.41,SE,143,8.2,10.1,55,-99.99,,,0.00,0,rob ver 1A,2013-07-10 10:35:00,
2013-07-10 03:36:00,83.5,64.4,29.32,SW,214,4.2,4.9,52,-99.99,,,0.00,0,rob ver 1B,2013-07-10 10:36:00,
2013-07-10 03:37:00,83.4,64.4,29.32,SSW,199,3.9,4.5,52,-99.99,,,0.00,0,rob ver 1B,2013-07-10 10:37:00,
2013-07-10 03:38:00,83.4,64.4,29.32,SSW,205,3.1,3.5,52,-99.99,,,0.00,0,rob ver 1B,2013-07-10 10:38:00,
2013-07-10 03:39:00,83.4,64.4,29.32,SSW,201,2.7,3.1,52,-99.99,,,0.00,0,rob ver 1B,2013-07-10 10:39:00,
2013-07-10 03:40:00,85.6,68.2,29.41,SE,133,3.7,4.3,56,-99.99,,,0.00,0,rob ver 1A,2013-07-10 10:40:00,
2013-07-10 03:41:00,83.4,64.4,29.32,SW,232,2.0,2.4,52,-99.99,,,0.00,0,rob ver 1B,2013-07-10 10:41:00,
2013-07-10 03:42:00,83.4,64.4,29.32,SW,228,1.4,2.1,52,-99.99,,,0.00,0,rob ver 1B,2013-07-10 10:42:00,
2013-07-10 03:43:00,83.4,64.4,29.32,SW,233,1.0,1.5,52,-99.99,,,0.00,0,rob ver 1B,2013-07-10 10:43:00,
2013-07-10 03:44:00,83.4,64.3,29.32,SSW,213,0.9,1.1,52,-99.99,,,0.00,0,rob ver 1B,2013-07-10 10:44:00,
2013-07-10 03:45:00,85.5,68.3,29.41,East,82,3.7,4.5,56,-99.99,,,0.00,0,rob ver 1A,2013-07-10 10:45:00,
2013-07-10 03:46:00,83.5,64.3,29.32,WNW,300,0.2,0.5,52,-99.99,,,0.00,0,rob ver 1B,2013-07-10 10:46:00,
2013-07-10 03:47:00,83.5,64.3,29.32,South,186,0.3,0.5,52,-99.99,,,0.00,0,rob ver 1B,2013-07-10 10:47:00,
2013-07-10 03:48:00,83.5,64.3,29.32,SW,226,1.1,1.6,52,-99.99,,,0.00,0,rob ver 1B,2013-07-10 10:48:00,
2013-07-10 03:49:00,83.6,65.0,29.32,SW,226,2.3,2.8,53,-99.99,,,0.00,0,rob ver 1B,2013-07-10 10:49:00,
2013-07-10 03:50:00,85.6,67.9,29.41,East,85,3.8,4.6,55,-99.99,,,0.00,0,rob ver 1A,2013-07-10 10:50:00,
2013-07-10 03:51:00,83.5,65.6,29.32,SSW,213,2.7,3.2,56,-99.99,,,0.00,0,rob ver 1B,2013-07-10 10:51:00,
2013-07-10 03:52:00,83.4,65.0,29.32,SW,224,3.0,3.4,53,-99.99,,,0.00,0,rob ver 1B,2013-07-10 10:52:00,
2013-07-10 03:53:00,83.4,65.8,29.32,SW,229,2.5,3.0,54,-99.99,,,0.00,0,rob ver 1B,2013-07-10 10:53:00,
2013-07-10 03:54:00,83.3,65.8,29.32,WSW,248,2.6,3.0,54,-99.99,,,0.00,0,rob ver 1B,2013-07-10 10:54:00,
2013-07-10 03:55:00,85.6,68.0,29.41,NE,50,1.1,1.3,55,-99.99,,,0.00,0,rob ver 1A,2013-07-10 10:55:00,
2013-07-10 03:56:00,83.2,65.7,29.32,West,277,2.5,3.0,57,-99.99,,,0.00,0,rob ver 1B,2013-07-10 10:56:00,
2013-07-10 03:57:00,83.2,66.3,29.32,WNW,284,2.7,3.2,54,-99.99,,,0.00,0,rob ver 1B,2013-07-10 10:57:00,
2013-07-10 03:58:00,83.2,65.7,29.32,West,280,2.3,2.8,56,-99.99,,,0.00,0,rob ver 1B,2013-07-10 10:58:00,
2013-07-10 03:59:00,83.2,66.3,29.32,WSW,245,1.6,1.9,56,-99.99,,,0.00,0,rob ver 1B,2013-07-10 10:59:00,
2013-07-10 04:00:00,85.7,67.9,29.41,North,354,2.7,3.1,55,-99.99,,,0.00,0,rob ver 1A,2013-07-10 11:00:00,
2013-07-10 04:01:00,83.2,66.9,29.32,SSW,204,2.5,2.9,57,-99.99,,,0.00,0,rob ver 1B,2013-07-10 11:01:00,
2013-07-10 04:02:00,83.2,67.6,29.32,SSW,204,2.6,2.9,60,-99.99,,,0.00,0,rob ver 1B,2013-07-10 11:02:00,
2013-07-10 04:03:00,83.1,67.4,29.32,SSW,206,2.4,2.8,59,-99.99,,,0.00,0,rob ver 1B,2013-07-10 11:03:00,
2013-07-10 04:04:00,83.0,68.2,29.32,SW,236,1.8,2.1,61,-99.99,,,0.00,0,rob ver 1B,2013-07-10 11:04:00,
2013-07-10 04:05:00,85.9,67.2,29.41,North,1,3.9,4.7,53,-99.99,,,0.00,0,rob ver 1A,2013-07-10 11:05:00,
2013-07-10 04:06:00,82.8,67.7,29.32,WSW,251,2.5,2.8,60,-99.99,,,0.00,0,rob ver 1B,2013-07-10 11:06:00,
2013-07-10 04:07:00,82.8,68.0,29.32,SW,228,2.5,2.8,61,-99.99,,,0.00,0,rob ver 1B,2013-07-10 11:07:00,
2013-07-10 04:08:00,82.8,68.3,29.32,SSW,199,2.4,2.6,63,-99.99,,,0.00,0,rob ver 1B,2013-07-10 11:08:00,
2013-07-10 04:09:00,82.8,69.4,29.32,SSE,155,2.7,3.1,62,-99.99,,,0.00,0,rob ver 1B,2013-07-10 11:09:00,
2013-07-10 04:10:00,86.0,67.6,29.41,North,349,4.1,4.6,54,-99.99,,,0.00,0,rob ver 1A,2013-07-10 11:10:00,
2013-07-10 04:11:00,82.7,68.3,29.32,ESE,122,3.1,3.7,59,-99.99,,,0.00,0,rob ver 1B,2013-07-10 11:11:00,
2013-07-10 04:12:00,82.7,66.8,29.32,SE,130,2.8,3.9,58,-99.99,,,0.00,0,rob ver 1B,2013-07-10 11:12:00,
2013-07-10 04:13:00,82.8,68.8,29.32,ESE,111,1.6,2.4,65,-99.99,,,0.00,0,rob ver 1B,2013-07-10 11:13:00,
2013-07-10 04:14:00,82.8,69.5,29.35,ESE,110,2.5,3.0,62,-99.99,,,0.00,0,rob ver 1B,2013-07-10 11:14:00,
2013-07-10 04:15:00,86.0,67.5,29.41,NNW,345,3.1,3.4,54,-99.99,,,0.00,0,rob ver 1A,2013-07-10 11:15:00,
2013-07-10 04:16:00,82.5,68.1,29.35,ESE,115,2.5,3.3,64,-99.99,,,0.00,0,rob ver 1B,2013-07-10 11:16:00,
2013-07-10 04:17:00,82.5,68.0,29.35,ESE,123,3.2,4.2,63,-99.99,,,0.00,0,rob ver 1B,2013-07-10 11:17:00,
2013-07-10 04:18:00,82.5,69.3,29.35,SE,137,2.9,4.3,61,-99.99,,,0.00,0,rob ver 1B,2013-07-10 11:18:00,
2013-07-10 04:19:00,82.4,68.2,29.35,SE,136,3.6,4.4,63,-99.99,,,0.00,0,rob ver 1B,2013-07-10 11:19:00,
2013-07-10 04:20:00,82.3,68.1,29.35,SE,136,3.5,4.1,61,-99.99,,,0.00,0,rob ver 1B,2013-07-10 11:20:00,
2013-07-10 04:21:00,85.9,68.2,29.41,NE,55,5.6,8.2,55,-99.99,,,0.00,0,rob ver 1A,2013-07-10 11:21:00,
2013-07-10 04:22:00,82.1,68.7,29.35,East,101,5.3,6.8,65,-99.99,,,0.00,0,rob ver 1B,2013-07-10 11:22:00,
2013-07-10 04:23:00,82.1,69.2,29.35,East,83,6.5,7.6,66,-99.99,,,0.00,0,rob ver 1B,2013-07-10 11:23:00,
2013-07-10 04:24:00,82.1,69.9,29.35,East,84,5.2,6.1,66,-99.99,,,0.00,0,rob ver 1B,2013-07-10 11:24:00,
2013-07-10 04:25:00,82.0,69.7,29.35,East,92,5.6,7.1,67,-99.99,,,0.00,0,rob ver 1B,2013-07-10 11:25:00,
2013-07-10 04:26:00,85.5,68.6,29.41,NE,54,6.7,8.6,57,-99.99,,,0.00,0,rob ver 1A,2013-07-10 11:26:00,
2013-07-10 04:27:00,81.9,68.8,29.35,East,90,5.3,6.9,64,-99.99,,,0.00,0,rob ver 1B,2013-07-10 11:27:00,
2013-07-10 04:28:00,81.9,69.0,29.35,East,92,5.3,6.6,64,-99.99,,,0.00,0,rob ver 1B,2013-07-10 11:28:00,
2013-07-10 04:29:00,81.9,68.3,29.35,East,88,6.6,8.5,64,-99.99,,,0.00,0,rob ver 1B,2013-07-10 11:29:00,
2013-07-10 04:30:00,81.8,68.1,29.35,East,86,6.6,7.8,64,-99.99,,,0.00,0,rob ver 1B,2013-07-10 11:30:00,
2013-07-10 04:31:00,85.4,68.7,29.41,NE,56,7.9,10.0,57,-99.99,,,0.00,0,rob ver 1A,2013-07-10 11:31:00,
2013-07-10 04:32:00,81.8,68.1,29.35,ENE,74,5.8,7.2,63,-99.99,,,0.00,0,rob ver 1B,2013-07-10 11:32:00,
2013-07-10 04:33:00,81.8,68.2,29.35,ENE,67,5.6,7.0,63,-99.99,,,0.00,0,rob ver 1B,2013-07-10 11:33:00,
2013-07-10 04:34:00,81.8,68.4,29.35,NE,47,5.5,7.1,62,-99.99,,,0.00,0,rob ver 1B,2013-07-10 11:34:00,
2013-07-10 04:35:00,81.8,67.7,29.35,NE,40,6.8,7.7,61,-99.99,,,0.00,0,rob ver 1B,2013-07-10 11:35:00,
2013-07-10 04:36:00,85.3,68.8,29.41,NE,48,5.9,7.3,57,-99.99,,,0.00,0,rob ver 1A,2013-07-10 11:36:00,
2013-07-10 04:37:00,82.1,66.9,29.35,NE,44,6.5,8.1,59,-99.99,,,0.00,0,rob ver 1B,2013-07-10 11:37:00,
2013-07-10 04:38:00,82.2,66.7,29.35,NE,43,6.4,7.5,59,-99.99,,,0.00,0,rob ver 1B,2013-07-10 11:38:00,
2013-07-10 04:39:00,82.4,67.2,29.35,NE,49,5.9,7.9,61,-99.99,,,0.00,0,rob ver 1B,2013-07-10 11:39:00,
2013-07-10 04:40:00,82.5,67.5,29.35,NE,51,4.0,6.2,60,-99.99,,,0.00,0,rob ver 1B,2013-07-10 11:40:00,
2013-07-10 04:41:00,85.2,68.8,29.41,ENE,66,7.1,9.8,58,-99.99,,,0.00,0,rob ver 1A,2013-07-10 11:41:00,
2013-07-10 04:42:00,82.5,66.7,29.35,North,7,3.8,4.9,58,-99.99,,,0.00,0,rob ver 1B,2013-07-10 11:42:00,
2013-07-10 04:43:00,82.6,67.3,29.35,NE,54,3.5,4.4,61,-99.99,,,0.00,0,rob ver 1B,2013-07-10 11:43:00,
2013-07-10 04:44:00,82.6,67.7,29.35,ENE,75,4.5,5.4,60,-99.99,,,0.00,0,rob ver 1B,2013-07-10 11:44:00,
2013-07-10 04:45:00,82.5,66.9,29.35,ENE,66,4.4,6.1,58,-99.99,,,0.00,0,rob ver 1B,2013-07-10 11:45:00,
2013-07-10 04:46:00,85.2,68.7,29.41,ENE,65,6.0,7.8,57,-99.99,,,0.00,0,rob ver 1A,2013-07-10 11:46:00,
2013-07-10 04:47:00,82.5,67.9,29.35,SE,127,4.4,6.8,64,-99.99,,,0.00,0,rob ver 1B,2013-07-10 11:47:00,
2013-07-10 04:48:00,82.2,68.5,29.35,SE,134,5.4,6.9,63,-99.99,,,0.00,0,rob ver 1B,2013-07-10 11:48:00,
2013-07-10 04:49:00,81.8,67.8,29.35,ESE,106,4.2,5.1,63,-99.99,,,0.00,0,rob ver 1B,2013-07-10 11:49:00,
2013-07-10 04:50:00,81.6,68.1,29.35,ENE,69,3.1,4.0,63,-99.99,,,0.00,0,rob ver 1B,2013-07-10 11:50:00,
2013-07-10 04:51:00,85.2,67.6,29.41,ENE,72,6.7,10.0,55,-99.99,,,0.00,0,rob ver 1A,2013-07-10 11:51:00,
2013-07-10 04:52:00,81.4,68.2,29.35,NE,49,4.2,5.1,64,-99.99,,,0.00,0,rob ver 1B,2013-07-10 11:52:00,
2013-07-10 04:53:00,81.4,68.1,29.35,NE,49,4.7,7.1,64,-99.99,,,0.00,0,rob ver 1B,2013-07-10 11:53:00,
2013-07-10 04:54:00,81.3,68.3,29.35,NE,51,8.0,10.2,65,-99.99,,,0.00,0,rob ver 1B,2013-07-10 11:54:00,
2013-07-10 04:55:00,81.0,69.0,29.35,NE,51,7.0,8.8,68,-99.99,,,0.00,0,rob ver 1B,2013-07-10 11:55:00,
2013-07-10 04:56:00,85.2,67.1,29.41,ENE,66,4.9,6.6,54,-99.99,,,0.00,0,rob ver 1A,2013-07-10 11:56:00,
2013-07-10 04:57:00,80.3,70.1,29.35,NE,46,6.0,8.1,71,-99.99,,,0.00,0,rob ver 1B,2013-07-10 11:57:00,
2013-07-10 04:58:00,79.9,69.8,29.35,NE,36,7.6,9.1,70,-99.99,,,0.00,0,rob ver 1B,2013-07-10 11:58:00,
2013-07-10 04:59:00,79.5,69.4,29.35,NE,41,8.6,9.9,71,-99.99,,,0.00,0,rob ver 1B,2013-07-10 11:59:00,
2013-07-10 05:00:00,79.4,69.5,29.35,NE,42,8.3,10.4,72,-99.99,,,0.00,0,rob ver 1B,2013-07-10 12:00:00,
2013-07-10 05:01:00,85.2,66.9,29.41,ENE,67,3.3,4.3,54,-99.99,,,0.00,0,rob ver 1A,2013-07-10 12:01:00,
2013-07-10 05:02:00,79.1,69.3,29.35,NE,47,8.1,10.6,70,-99.99,,,0.01,0,rob ver 1B,2013-07-10 12:02:00,
2013-07-10 05:03:00,78.9,69.4,29.35,NE,50,8.0,10.2,72,-99.99,,,0.01,0,rob ver 1B,2013-07-10 12:03:00,
2013-07-10 05:04:00,78.7,69.5,29.35,NE,53,9.5,13.0,73,-99.99,,,0.01,0,rob ver 1B,2013-07-10 12:04:00,
2013-07-10 05:05:00,78.4,69.4,29.35,NE,51,10.7,13.9,75,-99.99,,,0.01,0,rob ver 1B,2013-07-10 12:05:00,
2013-07-10 05:06:00,85.2,66.7,29.41,ENE,70,2.7,3.5,53,-99.99,,,0.00,0,rob ver 1A,2013-07-10 12:06:00,
2013-07-10 05:07:00,77.7,69.3,29.35,NE,44,11.8,14.3,76,-99.99,,,0.01,0,rob ver 1B,2013-07-10 12:07:00,
2013-07-10 05:11:00,85.2,66.6,29.41,East,92,1.2,1.8,53,-99.99,,,0.00,0,rob ver 1A,2013-07-10 12:11:00,
2013-07-10 05:16:00,85.3,66.7,29.41,SW,226,5.4,6.1,53,-99.99,,,0.00,0,rob ver 1A,2013-07-10 12:16:00,
2013-07-10 05:21:00,84.9,66.5,29.41,SW,229,8.0,12.2,52,-99.99,,,0.00,0,rob ver 1A,2013-07-10 12:21:00,
2013-07-10 05:26:00,85.1,64.8,29.41,WSW,239,6.8,7.4,51,-99.99,,,0.00,0,rob ver 1A,2013-07-10 12:26:00,
2013-07-10 05:31:00,84.8,64.7,29.41,SSW,197,10.6,13.0,50,-99.99,,,0.00,.328,rob ver 1A,2013-07-10 12:31:00,
2013-07-10 05:36:00,84.2,65.1,29.41,SSW,198,12.1,15.3,52,-99.99,,,0.00,.656,rob ver 1A,2013-07-10 12:36:00,
2013-07-10 05:41:00,83.9,65.3,29.41,SSW,209,10.0,12.4,53,-99.99,,,0.00,1.311,rob ver 1A,2013-07-10 12:41:00,
2013-07-10 05:46:00,83.6,65.5,29.41,SSW,195,11.6,13.5,54,-99.99,,,0.00,2.95,rob ver 1A,2013-07-10 12:46:00,
2013-07-10 05:51:00,83.5,65.4,29.41,South,183,13.2,15.0,54,-99.99,,,0.00,5.9,rob ver 1A,2013-07-10 12:51:00,
2013-07-10 05:56:00,83.3,65.5,29.41,SSW,192,11.8,15.1,55,-99.99,,,0.00,10.82,rob ver 1A,2013-07-10 12:56:00,
2013-07-10 06:01:00,83.1,65.7,29.41,South,189,11.3,15.3,55,-99.99,,,0.00,15.41,rob ver 1A,2013-07-10 13:01:00,
2013-07-10 06:06:00,83.0,65.7,29.41,South,191,10.7,12.7,56,-99.99,,,0.00,20.98,rob ver 1A,2013-07-10 13:06:00,
2013-07-10 06:11:00,82.8,65.8,29.41,South,180,10.0,12.6,56,-99.99,,,0.00,27.54,rob ver 1A,2013-07-10 13:11:00,
2013-07-10 06:16:00,82.9,65.7,29.41,South,176,10.9,14.0,56,-99.99,,,0.00,34.09,rob ver 1A,2013-07-10 13:16:00,
2013-07-10 06:21:00,83.0,65.6,29.41,South,180,10.2,13.0,55,-99.99,,,0.00,41.96,rob ver 1A,2013-07-10 13:21:00,
2013-07-10 06:26:00,83.0,65.6,29.41,South,189,10.4,14.3,55,-99.99,,,0.00,51.14,rob ver 1A,2013-07-10 13:26:00,
2013-07-10 06:31:00,83.0,65.6,29.41,South,189,9.7,11.7,55,-99.99,,,0.00,61.47,rob ver 1A,2013-07-10 13:31:00,
2013-07-10 06:36:00,83.1,65.6,29.41,South,189,7.9,9.9,55,-99.99,,,0.00,65.56,rob ver 1A,2013-07-10 13:36:00,
2013-07-10 06:42:00,83.0,65.6,29.38,SSW,196,11.6,15.1,55,-99.99,,,0.00,70.8,rob ver 1A,2013-07-10 13:42:00,
2013-07-10 06:47:00,82.9,65.8,29.41,SSW,210,9.3,11.1,56,-99.99,,,0.00,75.6,rob ver 1A,2013-07-10 13:47:00,
2013-07-10 06:52:00,82.9,65.9,29.41,SW,214,6.7,9.1,56,-99.99,,,0.00,81.3,rob ver 1A,2013-07-10 13:52:00,
2013-07-10 06:57:00,82.9,66.1,29.41,SW,233,5.4,6.9,57,-99.99,,,0.00,93.3,rob ver 1A,2013-07-10 13:57:00,
2013-07-10 07:02:00,82.7,66.3,29.41,SW,214,3.4,4.6,57,-99.99,,,0.00,101,rob ver 1A,2013-07-10 14:02:00,
2013-07-10 07:07:00,82.5,66.4,29.41,WSW,252,4.3,5.2,58,-99.99,,,0.00,104.2,rob ver 1A,2013-07-10 14:07:00,
2013-07-10 07:12:00,82.5,66.4,29.41,SSW,192,3.5,4.8,58,-99.99,,,0.00,107.5,rob ver 1A,2013-07-10 14:12:00,
2013-07-10 07:17:00,82.8,66.3,29.41,SSW,203,5.3,6.9,57,-99.99,,,0.00,120,rob ver 1A,2013-07-10 14:17:00,
2013-07-10 07:22:00,82.6,66.5,29.41,SW,221,6.9,7.7,58,-99.99,,,0.00,137,rob ver 1A,2013-07-10 14:22:00,
2013-07-10 07:27:00,82.9,66.6,29.41,SW,215,7.5,8.7,57,-99.99,,,0.00,142.6,rob ver 1A,2013-07-10 14:27:00,
2013-07-10 07:32:00,82.9,66.6,29.41,SW,225,6.1,8.1,58,-99.99,,,0.00,136.7,rob ver 1A,2013-07-10 14:32:00,
2013-07-10 07:37:00,82.8,66.7,29.41,SW,222,6.1,7.8,58,-99.99,,,0.00,129.5,rob ver 1A,2013-07-10 14:37:00,
2013-07-10 07:42:00,82.6,66.8,29.41,WSW,242,4.7,5.7,58,-99.99,,,0.00,125.2,rob ver 1A,2013-07-10 14:42:00,
2013-07-10 07:47:00,82.6,66.8,29.41,WSW,239,5.4,6.6,59,-99.99,,,0.00,120.6,rob ver 1A,2013-07-10 14:47:00,
2013-07-10 07:52:00,83.0,66.9,29.41,SW,232,6.7,8.7,58,-99.99,,,0.00,122.9,rob ver 1A,2013-07-10 14:52:00,
2013-07-10 07:57:00,82.7,67.0,29.41,SW,215,4.9,6.2,58,-99.99,,,0.00,144.1,rob ver 1A,2013-07-10 14:57:00,
2013-07-10 08:02:00,83.0,67.0,29.41,SW,232,3.2,4.4,58,-99.99,,,0.00,159.7,rob ver 1A,2013-07-10 15:02:00,
2013-07-10 08:07:00,83.1,66.9,29.44,SW,236,3.7,5.4,58,-99.99,,,0.00,168.5,rob ver 1A,2013-07-10 15:07:00,
2013-07-10 08:12:00,83.3,67.0,29.44,SSW,203,5.5,7.6,57,-99.99,,,0.00,188.8,rob ver 1A,2013-07-10 15:12:00,
2013-07-10 08:17:00,83.7,67.0,29.44,SSW,196,7.0,10.6,57,-99.99,,,0.00,222.3,rob ver 1A,2013-07-10 15:17:00,
2013-07-10 08:22:00,83.9,66.9,29.44,SW,219,6.7,8.4,56,-99.99,,,0.00,243.6,rob ver 1A,2013-07-10 15:22:00,
2013-07-10 08:27:00,84.2,67.0,29.44,SSW,211,4.5,6.3,56,-99.99,,,0.00,263.6,rob ver 1A,2013-07-10 15:27:00,
2013-07-10 08:32:00,84.2,66.9,29.44,South,179,4.6,7.2,55,-99.99,,,0.00,282.6,rob ver 1A,2013-07-10 15:32:00,
2013-07-10 08:38:00,84.4,67.0,29.44,SSW,208,4.2,7.0,55,-99.99,,,0.00,286.5,rob ver 1A,2013-07-10 15:38:00,
2013-07-10 08:43:00,84.8,66.9,29.44,SW,216,2.6,4.1,55,-99.99,,,0.00,301.6,rob ver 1A,2013-07-10 15:43:00,
2013-07-10 08:48:00,85.0,66.6,29.44,SSE,166,2.8,4.5,54,-99.99,,,0.00,304.7,rob ver 1A,2013-07-10 15:48:00,
2013-07-10 08:53:00,85.8,66.8,29.44,South,187,4.6,5.6,52,-99.99,,,0.00,667.1,rob ver 1A,2013-07-10 15:53:00,
2013-07-10 08:58:00,86.7,66.7,29.44,SSW,209,7.3,9.9,51,-99.99,,,0.00,686.7,rob ver 1A,2013-07-10 15:58:00,
2013-07-10 09:03:00,87.2,66.5,29.44,SSW,206,8.3,10.8,50,-99.99,,,0.00,708,rob ver 1A,2013-07-10 16:03:00,
2013-07-10 09:04:00,87.1,66.5,29.44,SSW,193,6.9,8.6,50,-99.99,,,0.00,673.6,rob ver 1A,2013-07-10 16:04:00,
2013-07-10 09:09:00,87.1,66.6,29.44,SSW,199,6.2,8.7,50,-99.99,,,0.00,284.3,rob ver 1A,2013-07-10 16:09:00,
2013-07-10 09:14:00,87.8,66.7,29.44,South,185,4.6,6.5,49,-99.99,,,0.00,786,rob ver 1A,2013-07-10 16:14:00,
2013-07-10 09:19:00,88.6,66.0,29.44,South,179,6.4,8.5,47,-99.99,,,0.00,786,rob ver 1A,2013-07-10 16:19:00,
2013-07-10 09:24:00,89.2,66.1,29.41,South,174,6.2,8.7,46,-99.99,,,0.00,777,rob ver 1A,2013-07-10 16:24:00,
2013-07-10 09:29:00,90.1,66.2,29.44,SW,225,5.1,7.0,45,-99.99,,,0.00,659.6,rob ver 1A,2013-07-10 16:29:00,
2013-07-10 09:34:00,89.4,66.0,29.44,South,187,6.7,9.8,45,-99.99,,,0.00,725,rob ver 1A,2013-07-10 16:34:00,
2013-07-10 09:39:00,89.8,66.0,29.44,ENE,62,2.5,3.8,45,-99.99,,,0.00,677.6,rob ver 1A,2013-07-10 16:39:00,
2013-07-10 09:44:00,90.5,65.8,29.44,ESE,105,1.0,2.7,43,-99.99,,,0.00,772,rob ver 1A,2013-07-10 16:44:00,
2013-07-10 09:49:00,91.7,66.0,29.44,ESE,110,1.6,3.0,42,-99.99,,,0.00,713,rob ver 1A,2013-07-10 16:49:00,
2013-07-10 09:54:00,90.9,65.9,29.41,NNE,29,4.7,7.2,43,-99.99,,,0.00,823,rob ver 1A,2013-07-10 16:54:00,
2013-07-10 09:59:00,91.9,65.6,29.44,NNW,327,1.5,3.0,41,-99.99,,,0.00,842,rob ver 1A,2013-07-10 16:59:00,
2013-07-10 10:04:00,92.6,65.1,29.44,NNE,20,4.4,6.8,40,-99.99,,,0.00,533.6,rob ver 1A,2013-07-10 17:04:00,
2013-07-10 10:09:00,93.3,64.7,29.44,NE,50,4.7,8.1,38,-99.99,,,0.00,917,rob ver 1A,2013-07-10 17:09:00,
2013-07-10 10:14:00,92.1,64.0,29.44,East,101,5.0,7.6,39,-99.99,,,0.00,934,rob ver 1A,2013-07-10 17:14:00,
2013-07-10 10:19:00,93.1,64.1,29.41,ESE,106,5.1,11.5,37,-99.99,,,0.00,802,rob ver 1A,2013-07-10 17:19:00,
2013-07-10 10:24:00,93.3,62.2,29.41,South,186,11.5,14.5,36,-99.99,,,0.00,864,rob ver 1A,2013-07-10 17:24:00,
2013-07-10 10:29:00,92.6,62.6,29.41,SE,145,9.8,13.2,37,-99.99,,,0.00,771,rob ver 1A,2013-07-10 17:29:00,
2013-07-10 10:35:00,93.0,62.4,29.41,South,175,11.9,15.7,36,-99.99,,,0.00,774,rob ver 1A,2013-07-10 17:35:00,
2013-07-10 10:40:00,92.8,62.3,29.41,South,177,8.9,13.2,36,-99.99,,,0.00,945,rob ver 1A,2013-07-10 17:40:00,
2013-07-10 10:45:00,92.6,62.4,29.41,SE,134,6.6,11.6,36,-99.99,,,0.00,601,rob ver 1A,2013-07-10 17:45:00,
2013-07-10 10:50:00,92.6,61.9,29.41,East,93,5.5,8.1,36,-99.99,,,0.00,945,rob ver 1A,2013-07-10 17:50:00,
2013-07-10 10:55:00,94.3,61.6,29.41,South,170,11.5,13.9,33,-99.99,,,0.00,464.7,rob ver 1A,2013-07-10 17:55:00,
2013-07-10 11:00:00,93.3,62.0,29.41,SSW,209,10.6,29.6,34,-99.99,,,0.00,1015,rob ver 1A,2013-07-10 18:00:00,
2013-07-10 11:05:00,94.2,61.8,29.41,SSE,166,9.7,12.8,34,-99.99,,,0.00,446.8,rob ver 1A,2013-07-10 18:05:00,
2013-07-10 11:10:00,93.5,63.8,29.41,South,180,15.3,18.7,39,-99.99,,,0.00,768,rob ver 1A,2013-07-10 18:10:00,
2013-07-10 11:15:00,93.5,63.8,29.41,SSE,158,13.5,17.0,38,-99.99,,,0.00,650.7,rob ver 1A,2013-07-10 18:15:00,
2013-07-10 11:20:00,93.0,64.6,29.41,South,183,16.3,19.2,39,-99.99,,,0.00,630.4,rob ver 1A,2013-07-10 18:20:00,
2013-07-10 11:25:00,93.6,63.5,29.41,South,182,16.9,22.6,37,-99.99,,,0.00,593.8,rob ver 1A,2013-07-10 18:25:00,
2013-07-10 11:30:00,93.1,64.4,29.41,South,191,15.0,19.5,39,-99.99,,,0.00,567.5,rob ver 1A,2013-07-10 18:30:00,
2013-07-10 11:35:00,92.7,64.6,29.41,South,184,19.6,24.6,39,-99.99,,,0.00,871,rob ver 1A,2013-07-10 18:35:00,
2013-07-10 11:40:00,93.3,63.6,29.41,South,188,17.7,21.9,37,-99.99,,,0.00,636.6,rob ver 1A,2013-07-10 18:40:00,
2013-07-10 11:45:00,94.0,64.2,29.41,SSW,199,14.8,20.0,37,-99.99,,,0.00,484.3,rob ver 1A,2013-07-10 18:45:00,
2013-07-10 11:50:00,94.6,61.1,29.41,South,183,9.1,11.7,33,-99.99,,,0.00,816,rob ver 1A,2013-07-10 18:50:00,
2013-07-10 11:55:00,94.1,61.9,29.41,SSE,162,9.8,12.4,34,-99.99,,,0.00,1051,rob ver 1A,2013-07-10 18:55:00,
2013-07-10 12:00:00,95.2,62.4,29.41,South,173,14.3,17.2,34,-99.99,,,0.00,1043,rob ver 1A,2013-07-10 19:00:00,
2013-07-10 12:06:00,95.5,62.6,29.41,SSE,160,16.2,19.6,33,-99.99,,,0.00,991,rob ver 1A,2013-07-10 19:06:00,
2013-07-10 12:11:00,95.0,62.2,29.41,South,181,13.1,16.5,33,-99.99,,,0.00,961,rob ver 1A,2013-07-10 19:11:00,
2013-07-10 12:16:00,95.0,62.0,29.41,SSE,164,11.9,18.1,33,-99.99,,,0.00,951,rob ver 1A,2013-07-10 19:16:00,
2013-07-10 12:21:00,96.3,62.5,29.41,South,171,16.8,22.7,32,-99.99,,,0.00,941,rob ver 1A,2013-07-10 19:21:00,
2013-07-10 12:26:00,95.8,62.0,29.41,SSE,161,11.3,15.9,33,-99.99,,,0.00,947,rob ver 1A,2013-07-10 19:26:00,
2013-07-10 12:31:00,95.8,62.4,29.38,SE,134,13.8,16.8,33,-99.99,,,0.00,944,rob ver 1A,2013-07-10 19:31:00,
2013-07-10 12:36:00,96.1,62.6,29.41,South,179,13.9,16.8,33,-99.99,,,0.00,951,rob ver 1A,2013-07-10 19:36:00,
2013-07-10 12:41:00,96.6,61.9,29.38,SSE,163,18.0,22.8,32,-99.99,,,0.00,954,rob ver 1A,2013-07-10 19:41:00,
2013-07-10 12:46:00,96.1,62.1,29.38,South,183,11.3,15.2,33,-99.99,,,0.00,953,rob ver 1A,2013-07-10 19:46:00,
2013-07-10 12:51:00,97.1,62.5,29.38,SSE,166,19.2,22.5,32,-99.99,,,0.00,972,rob ver 1A,2013-07-10 19:51:00,
2013-07-10 12:56:00,96.3,62.3,29.38,South,178,11.6,14.9,33,-99.99,,,0.00,974,rob ver 1A,2013-07-10 19:56:00,
2013-07-10 13:01:00,95.7,62.3,29.38,South,175,15.9,19.2,33,-99.99,,,0.00,908,rob ver 1A,2013-07-10 20:01:00,
2013-07-10 13:06:00,96.7,62.3,29.38,SSE,166,17.2,20.6,32,-99.99,,,0.00,1008,rob ver 1A,2013-07-10 20:06:00,
2013-07-10 13:11:00,96.3,62.0,29.38,South,183,9.7,15.6,32,-99.99,,,0.00,822,rob ver 1A,2013-07-10 20:11:00,
2013-07-10 13:16:00,96.9,61.9,29.38,SSE,166,14.0,17.8,31,-99.99,,,0.00,839,rob ver 1A,2013-07-10 20:16:00,
2013-07-10 13:21:00,97.1,61.4,29.38,South,182,14.4,17.7,30,-99.99,,,0.00,1019,rob ver 1A,2013-07-10 20:21:00,
2013-07-10 13:26:00,98.2,60.9,29.38,South,182,18.3,21.7,29,-99.99,,,0.00,926,rob ver 1A,2013-07-10 20:26:00,
2013-07-10 13:31:00,96.5,60.7,29.38,South,177,12.4,17.5,30,-99.99,,,0.00,994,rob ver 1A,2013-07-10 20:31:00,
2013-07-10 13:36:00,97.4,60.9,29.38,South,180,17.0,20.9,29,-99.99,,,0.00,761,rob ver 1A,2013-07-10 20:36:00,
2013-07-10 13:41:00,96.7,61.2,29.38,South,180,15.0,18.4,30,-99.99,,,0.00,774,rob ver 1A,2013-07-10 20:41:00,
2013-07-10 13:46:00,98.0,61.2,29.38,South,173,17.5,21.5,29,-99.99,,,0.00,673.4,rob ver 1A,2013-07-10 20:46:00,
2013-07-10 13:51:00,97.5,61.0,29.38,South,170,13.2,18.1,30,-99.99,,,0.00,994,rob ver 1A,2013-07-10 20:51:00,
2013-07-10 13:56:00,97.7,61.6,29.35,SSE,166,10.6,13.5,30,-99.99,,,0.00,928,rob ver 1A,2013-07-10 20:56:00,
2013-07-10 14:01:00,98.9,60.9,29.35,South,187,16.8,20.5,29,-99.99,,,0.00,921,rob ver 1A,2013-07-10 21:01:00,
2013-07-10 14:06:00,97.5,61.1,29.38,SSE,164,13.2,17.9,30,-99.99,,,0.00,910,rob ver 1A,2013-07-10 21:06:00,
2013-07-10 14:12:00,97.8,60.3,29.35,South,184,15.4,18.5,28,-99.99,,,0.00,898,rob ver 1A,2013-07-10 21:12:00,
2013-07-10 14:17:00,98.5,60.9,29.35,South,181,10.8,14.5,28,-99.99,,,0.00,891,rob ver 1A,2013-07-10 21:17:00,
2013-07-10 14:22:00,98.4,60.2,29.35,South,176,16.2,20.0,28,-99.99,,,0.00,893,rob ver 1A,2013-07-10 21:22:00,
2013-07-10 14:27:00,98.7,60.6,29.35,SSE,155,13.4,16.6,28,-99.99,,,0.00,867,rob ver 1A,2013-07-10 21:27:00,
2013-07-10 14:32:00,98.4,60.3,29.35,South,185,13.4,17.4,28,-99.99,,,0.00,849,rob ver 1A,2013-07-10 21:32:00,
2013-07-10 14:37:00,98.1,61.4,29.35,South,172,16.6,19.0,30,-99.99,,,0.00,844,rob ver 1A,2013-07-10 21:37:00,
2013-07-10 14:42:00,97.8,61.4,29.35,SSE,160,15.7,18.3,29,-99.99,,,0.00,827,rob ver 1A,2013-07-10 21:42:00,
2013-07-10 14:47:00,98.3,61.5,29.35,SSE,158,9.0,16.0,30,-99.99,,,0.00,819,rob ver 1A,2013-07-10 21:47:00,
2013-07-10 14:52:00,98.6,62.0,29.35,SSE,153,13.2,18.7,30,-99.99,,,0.00,809,rob ver 1A,2013-07-10 21:52:00,
2013-07-10 14:57:00,99.3,62.0,29.35,SSE,167,17.6,22.9,29,-99.99,,,0.00,797,rob ver 1A,2013-07-10 21:57:00,
2013-07-10 15:02:00,98.4,61.8,29.32,SE,132,14.1,17.9,30,-99.99,,,0.00,789,rob ver 1A,2013-07-10 22:02:00,
2013-07-10 15:07:00,99.1,61.6,29.32,South,183,13.9,17.1,29,-99.99,,,0.00,779,rob ver 1A,2013-07-10 22:07:00,
2013-07-10 15:12:00,99.0,61.4,29.32,SSW,192,12.1,14.7,29,-99.99,,,0.00,769,rob ver 1A,2013-07-10 22:12:00,
2013-07-10 15:17:00,98.7,61.3,29.32,South,186,10.1,15.8,29,-99.99,,,0.00,754,rob ver 1A,2013-07-10 22:17:00,
2013-07-10 15:22:00,98.7,61.2,29.32,SSE,161,14.8,21.2,28,-99.99,,,0.00,743,rob ver 1A,2013-07-10 22:22:00,
2013-07-10 15:27:00,99.7,60.6,29.32,SSE,148,14.7,22.6,28,-99.99,,,0.00,731,rob ver 1A,2013-07-10 22:27:00,
2013-07-10 15:32:00,99.6,60.6,29.32,SSE,167,14.5,18.7,27,-99.99,,,0.00,724,rob ver 1A,2013-07-10 22:32:00,
2013-07-10 15:37:00,100.2,60.2,29.32,SSE,159,15.2,21.0,26,-99.99,,,0.00,708,rob ver 1A,2013-07-10 22:37:00,
2013-07-10 15:42:00,100.6,60.5,29.32,South,169,14.3,17.5,26,-99.99,,,0.00,697.3,rob ver 1A,2013-07-10 22:42:00,
2013-07-10 15:47:00,99.6,60.1,29.32,SSE,159,11.3,16.3,27,-99.99,,,0.00,685.9,rob ver 1A,2013-07-10 22:47:00,
2013-07-10 15:52:00,99.5,60.1,29.32,SSE,153,17.9,21.7,27,-99.99,,,0.00,669.9,rob ver 1A,2013-07-10 22:52:00,
2013-07-10 15:57:00,99.9,60.5,29.32,South,171,15.1,20.3,27,-99.99,,,0.00,658.5,rob ver 1A,2013-07-10 22:57:00,
2013-07-10 16:02:00,100.3,60.2,29.32,SSE,155,16.5,19.8,27,-99.99,,,0.00,648.8,rob ver 1A,2013-07-10 23:02:00,
2013-07-10 16:07:00,99.1,60.1,29.32,SSE,151,12.0,18.3,27,-99.99,,,0.00,635.7,rob ver 1A,2013-07-10 23:07:00,
2013-07-10 16:13:00,100.0,59.9,29.29,SSE,166,16.1,18.6,26,-99.99,,,0.00,625.6,rob ver 1A,2013-07-10 23:13:00,
2013-07-10 16:18:00,99.6,59.5,29.29,South,171,17.2,25.8,26,-99.99,,,0.00,610.9,rob ver 1A,2013-07-10 23:18:00,
2013-07-10 16:23:00,99.2,59.5,29.29,South,188,8.3,11.5,27,-99.99,,,0.00,597.7,rob ver 1A,2013-07-10 23:23:00,
2013-07-10 16:28:00,100.1,59.6,29.29,SE,146,15.6,18.3,26,-99.99,,,0.00,587.4,rob ver 1A,2013-07-10 23:28:00,
2013-07-10 16:33:00,99.7,59.6,29.29,SSE,159,14.2,17.4,26,-99.99,,,0.00,578.6,rob ver 1A,2013-07-10 23:33:00,
2013-07-10 16:38:00,99.8,60.7,29.29,South,190,16.6,22.3,27,-99.99,,,0.00,600.5,rob ver 1A,2013-07-10 23:38:00,
2013-07-10 16:43:00,100.6,60.6,29.29,South,177,18.8,25.0,27,-99.99,,,0.00,602.8,rob ver 1A,2013-07-10 23:43:00,
2013-07-10 16:48:00,99.9,60.9,29.29,South,177,15.5,21.2,27,-99.99,,,0.00,394.6,rob ver 1A,2013-07-10 23:48:00,
2013-07-10 16:53:00,100.4,61.1,29.29,SSW,193,17.5,21.9,27,-99.99,,,0.00,555.5,rob ver 1A,2013-07-10 23:53:00,
2013-07-10 16:58:00,100.2,61.1,29.29,South,177,16.9,22.6,28,-99.99,,,0.00,550.8,rob ver 1A,2013-07-10 23:58:00,
2013-07-10 17:03:00,99.2,61.2,29.29,South,183,17.3,20.8,28,-99.99,,,0.00,433.7,rob ver 1A,2013-07-11 00:03:00,
2013-07-10 17:08:00,99.2,61.2,29.29,South,189,13.9,19.4,28,-99.99,,,0.00,491,rob ver 1A,2013-07-11 00:08:00,
2013-07-10 17:13:00,99.4,61.4,29.29,South,190,15.1,18.4,28,-99.99,,,0.00,490.7,rob ver 1A,2013-07-11 00:13:00,
2013-07-10 17:18:00,98.8,61.4,29.29,South,173,18.9,24.5,29,-99.99,,,0.00,438.3,rob ver 1A,2013-07-11 00:18:00,
2013-07-10 17:23:00,99.3,61.7,29.29,SSW,195,15.8,19.2,29,-99.99,,,0.00,411.8,rob ver 1A,2013-07-11 00:23:00,
2013-07-10 17:28:00,98.8,61.6,29.29,South,190,18.0,23.6,29,-99.99,,,0.00,405.6,rob ver 1A,2013-07-11 00:28:00,
2013-07-10 17:33:00,98.7,61.8,29.29,SSW,192,18.5,23.0,29,-99.99,,,0.00,392.8,rob ver 1A,2013-07-11 00:33:00,
2013-07-10 17:38:00,98.3,62.0,29.29,SSW,198,16.5,19.5,30,-99.99,,,0.00,353.2,rob ver 1A,2013-07-11 00:38:00,
2013-07-10 17:43:00,98.0,62.1,29.29,SSW,192,16.2,20.6,30,-99.99,,,0.00,342.9,rob ver 1A,2013-07-11 00:43:00,
2013-07-10 17:48:00,97.7,62.1,29.26,SSW,197,17.0,22.1,31,-99.99,,,0.00,323.6,rob ver 1A,2013-07-11 00:48:00,
2013-07-10 17:53:00,98.0,61.5,29.29,South,170,16.8,19.7,30,-99.99,,,0.00,309.2,rob ver 1A,2013-07-11 00:53:00,
2013-07-10 17:58:00,97.1,61.7,29.29,SSE,163,12.7,16.4,31,-99.99,,,0.00,289.1,rob ver 1A,2013-07-11 00:58:00,
2013-07-10 18:03:00,97.5,62.3,29.29,South,169,16.3,19.7,31,-99.99,,,0.00,274.2,rob ver 1A,2013-07-11 01:03:00,
2013-07-10 18:08:00,98.5,62.1,29.29,South,174,18.2,22.6,30,-99.99,,,0.00,256.8,rob ver 1A,2013-07-11 01:08:00,
2013-07-10 18:13:00,97.1,62.1,29.29,South,170,13.7,16.5,31,-99.99,,,0.00,240,rob ver 1A,2013-07-11 01:13:00,
2013-07-10 18:19:00,97.2,61.4,29.29,South,174,14.6,19.1,30,-99.99,,,0.00,225.9,rob ver 1A,2013-07-11 01:19:00,
2013-07-10 18:24:00,96.9,61.9,29.29,SSE,167,17.7,20.7,31,-99.99,,,0.00,205.3,rob ver 1A,2013-07-11 01:24:00,
2013-07-10 18:29:00,96.5,61.5,29.29,South,176,16.1,19.8,31,-99.99,,,0.00,192.2,rob ver 1A,2013-07-11 01:29:00,
2013-07-10 18:34:00,96.3,61.4,29.29,South,177,15.3,19.3,31,-99.99,,,0.00,177.1,rob ver 1A,2013-07-11 01:34:00,
2013-07-10 18:39:00,96.3,61.5,29.29,South,174,13.8,19.2,31,-99.99,,,0.00,163.4,rob ver 1A,2013-07-11 01:39:00,
2013-07-10 18:44:00,96.2,61.6,29.29,South,184,13.0,16.1,32,-99.99,,,0.00,149.6,rob ver 1A,2013-07-11 01:44:00,
2013-07-10 18:49:00,97.0,61.4,29.29,South,174,13.4,16.5,30,-99.99,,,0.00,135.2,rob ver 1A,2013-07-11 01:49:00,
2013-07-10 18:54:00,95.8,61.2,29.29,SSE,168,14.4,17.1,31,-99.99,,,0.00,123.1,rob ver 1A,2013-07-11 01:54:00,
2013-07-10 18:59:00,95.6,61.2,29.29,South,178,15.8,19.6,32,-99.99,,,0.00,109.9,rob ver 1A,2013-07-11 01:59:00,
2013-07-10 19:04:00,95.6,61.2,29.29,South,180,15.5,19.2,32,-99.99,,,0.00,96.3,rob ver 1A,2013-07-11 02:04:00,
2013-07-10 19:10:00,95.7,61.4,29.29,South,180,13.5,19.6,32,-99.99,,,0.00,85.5,rob ver 1A,2013-07-11 02:10:00,
2013-07-10 19:15:00,95.3,61.7,29.29,South,187,12.6,15.6,33,-99.99,,,0.00,71.7,rob ver 1A,2013-07-11 02:15:00,
2013-07-10 19:20:00,95.0,61.6,29.29,South,171,15.7,18.5,33,-99.99,,,0.00,56.16,rob ver 1A,2013-07-11 02:20:00,
2013-07-10 19:25:00,94.5,61.7,29.29,South,172,15.7,19.1,33,-99.99,,,0.00,39.3,rob ver 1A,2013-07-11 02:25:00,
2013-07-10 19:30:00,94.2,61.8,29.29,SSE,167,14.1,18.7,34,-99.99,,,0.00,25.54,rob ver 1A,2013-07-11 02:30:00,
2013-07-10 19:35:00,94.0,61.8,29.29,SSE,164,16.2,18.0,34,-99.99,,,0.00,20.63,rob ver 1A,2013-07-11 02:35:00,
2013-07-10 19:40:00,93.9,62.5,29.29,SSW,202,9.9,13.6,35,-99.99,,,0.00,11.79,rob ver 1A,2013-07-11 02:40:00,
2013-07-10 19:45:00,93.2,63.1,29.29,SSW,192,11.1,13.5,36,-99.99,,,0.00,6.878,rob ver 1A,2013-07-11 02:45:00,
2013-07-10 19:51:00,93.0,63.3,29.29,SSW,192,12.0,14.0,37,-99.99,,,0.00,4.585,rob ver 1A,2013-07-11 02:51:00,
2013-07-10 19:56:00,92.8,63.5,29.29,SSW,195,9.8,13.0,38,-99.99,,,0.00,4.749,rob ver 1A,2013-07-11 02:56:00,
2013-07-10 20:01:00,92.4,63.5,29.29,South,187,8.3,11.1,38,-99.99,,,0.00,.983,rob ver 1A,2013-07-11 03:01:00,
2013-07-10 20:06:00,92.5,63.3,29.32,South,177,8.3,9.8,38,-99.99,,,0.00,0,rob ver 1A,2013-07-11 03:06:00,
2013-07-10 20:11:00,92.9,62.9,29.32,South,169,11.8,14.6,37,-99.99,,,0.00,0,rob ver 1A,2013-07-11 03:11:00,
2013-07-10 20:16:00,92.2,63.4,29.29,SSW,195,11.4,13.6,38,-99.99,,,0.00,0,rob ver 1A,2013-07-11 03:16:00,
2013-07-10 20:21:00,92.6,63.3,29.29,South,187,11.4,15.2,38,-99.99,,,0.00,0,rob ver 1A,2013-07-11 03:21:00,
2013-07-10 20:26:00,92.4,63.0,29.29,South,169,13.2,15.9,37,-99.99,,,0.00,0,rob ver 1A,2013-07-11 03:26:00,
2013-07-10 20:32:00,92.3,63.2,29.29,South,175,12.4,15.1,38,-99.99,,,0.00,0,rob ver 1A,2013-07-11 03:32:00,
2013-07-10 20:37:00,92.0,63.2,29.32,SSE,164,13.5,16.6,38,-99.99,,,0.00,0,rob ver 1A,2013-07-11 03:37:00,
2013-07-10 20:42:00,91.9,63.3,29.32,South,169,13.3,17.1,38,-99.99,,,0.00,0,rob ver 1A,2013-07-11 03:42:00,
2013-07-10 20:47:00,91.7,63.4,29.32,South,176,12.9,16.8,39,-99.99,,,0.00,0,rob ver 1A,2013-07-11 03:47:00,
2013-07-10 20:52:00,91.5,63.2,29.32,South,173,14.7,19.5,39,-99.99,,,0.00,0,rob ver 1A,2013-07-11 03:52:00,
2013-07-10 20:57:00,91.2,63.5,29.32,South,174,13.4,16.0,39,-99.99,,,0.00,0,rob ver 1A,2013-07-11 03:57:00,
2013-07-10 21:01:00,91.1,63.7,29.32,South,180,15.6,18.7,40,-99.99,,,0.00,0,rob ver 1A,2013-07-11 04:01:00,
2013-07-10 21:02:00,91.0,63.6,29.32,South,174,12.2,16.8,40,-99.99,,,0.00,0,rob ver 1A,2013-07-11 04:02:00,
2013-07-10 21:07:00,90.7,63.9,29.32,South,179,13.8,18.6,41,-99.99,,,0.00,0,rob ver 1A,2013-07-11 04:07:00,
2013-07-10 21:12:00,90.6,64.3,29.32,South,185,14.5,18.2,42,-99.99,,,0.00,0,rob ver 1A,2013-07-11 04:12:00,
2013-07-10 21:18:00,90.2,65.1,29.32,South,169,13.8,16.7,43,-99.99,,,0.00,0,rob ver 1A,2013-07-11 04:18:00,
2013-07-10 21:23:00,90.0,65.6,29.32,South,178,14.2,18.4,44,-99.99,,,0.00,0,rob ver 1A,2013-07-11 04:23:00,
2013-07-10 21:28:00,89.7,65.8,29.32,South,179,15.6,18.9,45,-99.99,,,0.00,0,rob ver 1A,2013-07-11 04:28:00,
2013-07-10 21:33:00,89.7,65.6,29.32,South,177,14.8,17.4,45,-99.99,,,0.00,0,rob ver 1A,2013-07-11 04:33:00,
2013-07-10 21:38:00,89.6,65.1,29.32,South,173,16.0,19.1,44,-99.99,,,0.00,0,rob ver 1A,2013-07-11 04:38:00,
2013-07-10 21:43:00,89.5,64.8,29.35,SSE,168,14.4,17.4,44,-99.99,,,0.00,0,rob ver 1A,2013-07-11 04:43:00,
2013-07-10 21:48:00,89.5,64.7,29.35,South,176,13.4,17.8,43,-99.99,,,0.00,0,rob ver 1A,2013-07-11 04:48:00,
2013-07-10 21:53:00,89.3,64.4,29.35,South,174,13.1,15.8,43,-99.99,,,0.00,0,rob ver 1A,2013-07-11 04:53:00,
2013-07-10 21:59:00,89.2,64.3,29.32,South,176,13.4,16.6,43,-99.99,,,0.00,0,rob ver 1A,2013-07-11 04:59:00,
2013-07-10 22:04:00,89.2,64.2,29.35,South,177,11.9,15.0,43,-99.99,,,0.00,0,rob ver 1A,2013-07-11 05:04:00,
2013-07-10 22:09:00,89.0,64.2,29.35,South,176,11.8,14.7,43,-99.99,,,0.00,0,rob ver 1A,2013-07-11 05:09:00,
2013-07-10 22:14:00,88.8,64.4,29.35,South,180,11.7,14.2,44,-99.99,,,0.00,0,rob ver 1A,2013-07-11 05:14:00,
2013-07-10 22:19:00,88.6,64.6,29.35,South,186,11.1,14.0,45,-99.99,,,0.00,0,rob ver 1A,2013-07-11 05:19:00,
2013-07-10 22:24:00,88.4,64.8,29.35,South,186,8.9,11.2,45,-99.99,,,0.00,0,rob ver 1A,2013-07-11 05:24:00,
2013-07-10 22:29:00,88.3,64.8,29.32,SSW,193,10.8,13.9,45,-99.99,,,0.00,0,rob ver 1A,2013-07-11 05:29:00,
2013-07-10 22:34:00,88.2,64.9,29.32,SSW,193,11.9,15.5,46,-99.99,,,0.00,0,rob ver 1A,2013-07-11 05:34:00,
2013-07-10 22:39:00,88.1,64.8,29.32,South,190,12.0,15.1,46,-99.99,,,0.00,0,rob ver 1A,2013-07-11 05:39:00,
2013-07-10 22:45:00,88.0,64.6,29.32,South,190,13.5,16.6,45,-99.99,,,0.00,0,rob ver 1A,2013-07-11 05:45:00,
2013-07-10 22:50:00,88.0,64.3,29.32,South,189,11.4,15.2,45,-99.99,,,0.00,0,rob ver 1A,2013-07-11 05:50:00,
2013-07-10 22:55:00,88.0,63.1,29.32,South,190,12.7,16.4,43,-99.99,,,0.00,0,rob ver 1A,2013-07-11 05:55:00,
2013-07-10 23:00:00,87.9,62.7,29.32,South,190,13.1,15.7,43,-99.99,,,0.00,0,rob ver 1A,2013-07-11 06:00:00,
2013-07-10 23:05:00,87.8,62.3,29.32,South,184,10.3,13.4,42,-99.99,,,0.00,0,rob ver 1A,2013-07-11 06:05:00,
2013-07-10 23:10:00,87.7,62.0,29.32,South,182,12.3,16.0,42,-99.99,,,0.00,0,rob ver 1A,2013-07-11 06:10:00,
2013-07-10 23:15:00,87.5,61.9,29.32,South,186,12.4,15.9,42,-99.99,,,0.00,0,rob ver 1A,2013-07-11 06:15:00,
2013-07-10 23:20:00,87.3,62.2,29.32,South,187,13.6,15.4,43,-99.99,,,0.00,0,rob ver 1A,2013-07-11 06:20:00,
2013-07-10 23:25:00,87.1,62.1,29.32,South,190,10.6,13.3,43,-99.99,,,0.00,0,rob ver 1A,2013-07-11 06:25:00,
2013-07-10 23:31:00,87.1,62.3,29.32,South,191,11.9,15.6,43,-99.99,,,0.00,0,rob ver 1A,2013-07-11 06:31:00,
2013-07-10 23:36:00,86.9,62.5,29.32,South,190,11.6,13.6,44,-99.99,,,0.00,0,rob ver 1A,2013-07-11 06:36:00,
2013-07-10 23:41:00,86.8,62.9,29.32,South,185,12.4,15.0,45,-99.99,,,0.00,0,rob ver 1A,2013-07-11 06:41:00,
2013-07-10 23:46:00,86.6,63.1,29.32,South,191,11.0,14.7,45,-99.99,,,0.00,0,rob ver 1A,2013-07-11 06:46:00,
2013-07-10 23:51:00,86.6,63.1,29.32,South,186,9.3,12.1,45,-99.99,,,0.00,0,rob ver 1A,2013-07-11 06:51:00,
2013-07-10 23:56:00,86.5,63.1,29.32,SSW,193,10.8,12.9,45,-99.99,,,0.00,0,rob ver 1A,2013-07-11 06:56:00,